Temp
10 9 10 10 10 10 10 10 10 10 10 10 10 9 9 9 9 9 9 8 8 8 8 9 9 8 8 8 6 7 8 9 9 9 9 9 9 9 9 9 9 9 9
10 10 9 10 10 9 10 10 9 10 10 10 10 10 9 9 9 9 9 8 8 8 9 9 9 8 7 7 7 8 8 9 9 9 9 9 9 9 9 9 9 9 9
10 10 9 9 10 9 9 9 9 9 10 9 9 9 9 9 9 9 9 8 8 8 9 9 8 8 8 8 8 8 9 9 9 9 9 9 9 8 8 8 9 9 9
9 9 9 9 9 9 9 9 9 9 9 9 9 9 9 9 10 9 9 8 8 8 9 9 8 8 8 8 8 8 9 9 9 9 8 8 8 7 7 8 9 9 9
9 9 9 9 9 9 9 9 9 9 9 9 9 9 9 9 9 9 8 8 8 8 8 9 8 8 8 8 8 8 8 8 8 8 8 8 7 8 8 8 8 9 9
9 9 9 9 9 9 9 9 9 9 9 8 8 8 9 9 9 9 8 8 8 8 8 8 8 8 8 8 8 8 8 8 7 7 8 8 8 8 8 8 8 8 8
8 8 8 8 8 9 8 8 9 9 9 8 8 8 9 9 9 9 8 8 8 8 8 8 8 8 8 8 8 8 8 8 7 7 8 8 8 8 8 8 8 8 8
9 8 8 8 8 8 8 8 8 8 8 8 8 8 8 9 9 9 9 8 8 7 8 8 8 8 8 8 8 8 8 8 7 7 7 8 8 8 8 7 7 7 8
8 8 8 8 8 8 8 8 8 8 8 8 8 8 8 8 9 8 9 8 7 7 7 8 8 8 8 8 8 8 7 8 7 7 7 7 7 7 7 7 7 7 7
8 8 8 8 8 8 7 7 8 7 7 8 8 8 8 8 8 8 8 8 7 7 7 7 7 7 8 8 8 7 7 7 7 7 7 7 7 7 7 7 7 7 7
7 7 8 8 8 8 8 7 7 7 7 7 8 8 8 8 8 8 8 7 7 7 7 7 7 7 7 7 7 8 8 7 8 7 7 7 7 7 7 7 7 7 7
7 7 7 7 8 8 8 8 7 7 7 7 7 7 7 7 7 7 7 7 7 7 7 7 7 7 7 7 7 7 7 7 8 7 7 7 7 7 7 7 7 7 7
7 7 7 7 7 8 8 8 7 7 7 7 7 7 7 7 7 7 7 7 7 7 7 7 7 7 7 7 7 7 7 7 7 7 7 7 7 7 7 7 7 7 7
7 7 7 7 7 7 7 8 8 8 7 7 7 7 6 6 7 7 7 7 7 7 7 7 7 6 6 7 7 7 7 7 7 7 7 7 7 7 7 7 7 6 6
8 8 8 8 8 7 7 7 8 8 8 7 7 6 6 6 6 6 7 6 7 7 7 7 7 6 6 6 6 6 6 7 7 7 7 7 7 7 6 6 6 6 6
8 7 7 8 8 8 8 7 7 7 8 7 7 6 6 6 6 6 6 6 6 6 6 6 7 6 6 6 6 6 6 6 6 7 7 6 6 6 6 6 6 6 6
7 7 7 7 7 7 7 7 7 7 7 7 7 7 6 6 6 6 6 6 6 6 6 6 6 6 6 6 7 6 6 6 6 6 7 6 6 6 6 6 5 5 5
7 7 7 7 7 7 7 7 7 7 7 7 7 7 7 6 6 6 6 6 6 6 6 6 6 6 6 6 6 6 6 6 6 6 6 6 6 6 5 6 5 5 5
7 7 7 7 8 7 7 7 7 7 7 7 8 7 7 6 6 6 5 6 6 5 6 5 5 6 6 6 6 5 5 6 6 6 5 5 6 5 5 5 5 5 5
6 6 6 7 7 7 7 7 7 7 6 6 7 7 6 6 6 5 5 5 5 5 5 5 5 5 6 5 5 5 5 5 5 5 6 5 5 5 5 5 5 5 4
5 5 6 6 6 7 7 7 6 6 6 6 6 6 6 5 5 5 5 5 5 5 5 5 5 5 5 5 5 5 5 5 5 5 5 5 4 5 5 5 5 5 4
5 5 6 6 6 6 6 6 6 6 5 5 5 5 5 5 4 4 4 4 4 4 4 4 5 5 5 5 5 4 4 4 4 5 4 4 4 4 4 5 5 4 4
4 4 5 5 5 5 6 6 5 4 4 4 3 4 3 3 4 3 3 3 4 3 4 3 4 4 5 5 4 4 4 5 5 4 4 4 3 3 4 4 4 4 4
4 4 5 5 6 6 5 6 4 2 2 2 2 2 2 2 3 2 2 3 3 3 3 4 4 4 5 4 4 4 4 4 4 4 4 3 3 3 4 3 3 4 4
3 3 4 5 5 4 4 3 1 -1 -1 0 0 1 1 1 2 2 2 2 2 3 3 3 4 4 4 4 4 4 4 3 3 3 3 3 3 3 2 2 2 3 3
2 3 4 3 2 2 2 1 -2 -2 -1 -1 -1 -0 -0 0 1 1 1 1 1 2 3 3 3 3 3 3 4 4 4 3 3 3 3 3 4 2 1 1 2 3 3
Height
3171 3172 3173 3173 3174 3175 3175 3175 3175 3175 3175 3174 3174 3173 3172 3171 3171 3171 3170 3170 3170 3169 3168 3167 3167 3166 3165 3165 3166 3165 3164 3165 3166 3166 3167 3167 3168 3168 3168 3169 3169 3169 3169
3170 3171 3172 3173 3173 3174 3174 3175 3175 3175 3175 3174 3174 3173 3173 3172 3171 3171 3171 3170 3170 3169 3168 3167 3167 3167 3166 3165 3165 3165 3166 3165 3165 3166 3167 3168 3168 3168 3169 3169 3169 3169 3170
3168 3169 3171 3172 3173 3173 3174 3174 3174 3174 3174 3174 3174 3173 3172 3172 3171 3171 3171 3170 3170 3169 3169 3168 3167 3167 3166 3165 3165 3165 3165 3166 3167 3167 3167 3168 3169 3169 3168 3169 3170 3170 3170
3166 3168 3169 3171 3172 3172 3173 3173 3173 3173 3174 3174 3173 3173 3172 3172 3171 3170 3170 3170 3170 3169 3169 3168 3167 3167 3166 3166 3166 3166 3165 3166 3166 3167 3167 3168 3168 3168 3169 3170 3170 3170 3171
3165 3166 3167 3169 3170 3171 3171 3172 3172 3172 3172 3172 3172 3172 3172 3172 3171 3170 3170 3170 3170 3169 3169 3168 3167 3167 3166 3166 3166 3166 3166 3167 3167 3167 3167 3167 3168 3169 3169 3169 3170 3170 3170
3163 3165 3166 3166 3167 3169 3169 3170 3171 3171 3171 3170 3171 3171 3171 3171 3170 3170 3169 3169 3169 3169 3169 3169 3168 3167 3166 3166 3166 3167 3167 3167 3168 3167 3168 3168 3169 3169 3169 3169 3170 3169 3169
3161 3163 3164 3164 3166 3167 3167 3168 3169 3169 3170 3170 3170 3170 3170 3169 3169 3169 3169 3169 3169 3169 3169 3169 3168 3167 3166 3166 3166 3166 3166 3167 3168 3167 3168 3168 3168 3168 3168 3169 3169 3169 3168
3159 3160 3162 3162 3163 3164 3165 3166 3166 3167 3168 3168 3169 3169 3168 3168 3168 3168 3167 3168 3168 3168 3169 3168 3168 3167 3166 3166 3165 3165 3166 3166 3167 3167 3167 3168 3168 3168 3168 3168 3168 3168 3168
3156 3157 3158 3159 3160 3161 3162 3163 3164 3164 3165 3166 3166 3167 3167 3167 3167 3167 3166 3166 3166 3166 3167 3167 3166 3166 3165 3165 3165 3165 3165 3165 3166 3166 3166 3167 3167 3167 3167 3167 3167 3168 3167
3154 3154 3154 3155 3156 3157 3158 3159 3160 3161 3162 3163 3164 3164 3165 3165 3165 3165 3165 3165 3165 3165 3165 3165 3165 3164 3164 3164 3164 3164 3165 3165 3165 3165 3165 3166 3166 3166 3166 3166 3166 3166 3166
3151 3151 3151 3151 3152 3153 3154 3154 3156 3157 3158 3159 3160 3160 3161 3162 3162 3162 3162 3163 3163 3163 3163 3163 3163 3163 3162 3162 3162 3162 3162 3163 3164 3164 3164 3164 3164 3164 3165 3165 3164 3164 3164
3148 3147 3147 3147 3147 3147 3149 3150 3151 3152 3153 3155 3155 3156 3157 3157 3158 3159 3159 3159 3159 3160 3161 3161 3161 3161 3161 3160 3160 3160 3160 3161 3161 3162 3162 3162 3162 3162 3162 3162 3162 3162 3162
3143 3143 3143 3143 3142 3142 3143 3144 3145 3147 3148 3149 3150 3151 3152 3153 3153 3154 3155 3155 3156 3157 3157 3158 3158 3159 3159 3159 3158 3157 3157 3158 3158 3159 3159 3159 3160 3160 3160 3160 3160 3160 3159
3137 3137 3138 3138 3138 3138 3137 3137 3138 3139 3141 3143 3145 3146 3146 3147 3148 3149 3150 3150 3151 3152 3153 3154 3155 3155 3155 3155 3155 3155 3155 3156 3156 3156 3157 3157 3157 3157 3157 3157 3157 3157 3157
3133 3132 3132 3132 3132 3132 3132 3132 3132 3132 3133 3135 3137 3139 3139 3140 3142 3143 3144 3145 3146 3147 3148 3149 3150 3150 3151 3151 3151 3152 3152 3152 3152 3153 3153 3154 3154 3154 3155 3154 3154 3154 3154
3128 3128 3127 3127 3127 3126 3126 3126 3126 3126 3127 3127 3129 3131 3132 3133 3135 3136 3137 3139 3140 3141 3142 3143 3144 3145 3146 3146 3147 3147 3147 3148 3148 3148 3149 3149 3150 3150 3151 3151 3151 3151 3150
3120 3121 3120 3119 3118 3117 3118 3119 3119 3119 3119 3118 3120 3122 3124 3125 3127 3128 3130 3131 3134 3135 3135 3136 3137 3138 3139 3139 3141 3142 3142 3143 3142 3143 3144 3145 3145 3145 3146 3146 3146 3146 3146
3111 3110 3111 3110 3110 3108 3108 3108 3109 3110 3109 3110 3111 3112 3114 3117 3119 3120 3121 3123 3127 3127 3128 3129 3131 3131 3133 3133 3135 3136 3136 3137 3137 3137 3138 3139 3140 3140 3141 3141 3141 3141 3141
3102 3100 3100 3099 3098 3098 3097 3096 3097 3097 3098 3099 3100 3101 3103 3105 3108 3110 3112 3115 3118 3119 3120 3121 3123 3124 3125 3127 3128 3128 3129 3129 3131 3131 3131 3132 3133 3134 3135 3136 3136 3136 3136
3093 3090 3088 3087 3087 3086 3085 3084 3084 3084 3086 3088 3089 3090 3092 3093 3095 3098 3101 3104 3107 3109 3112 3113 3115 3116 3117 3119 3120 3120 3120 3121 3122 3122 3124 3124 3125 3127 3128 3129 3129 3130 3130
3085 3081 3078 3075 3074 3072 3072 3071 3071 3070 3072 3074 3075 3077 3080 3081 3083 3086 3088 3092 3096 3098 3102 3104 3105 3106 3108 3110 3110 3109 3111 3112 3112 3114 3116 3116 3117 3120 3119 3121 3122 3123 3124
3075 3072 3068 3065 3062 3059 3057 3057 3057 3056 3057 3059 3061 3063 3066 3069 3072 3074 3077 3080 3084 3086 3090 3093 3095 3096 3097 3099 3100 3100 3100 3102 3101 3106 3106 3107 3110 3111 3111 3112 3113 3114 3116
3068 3063 3059 3055 3051 3048 3044 3041 3040 3041 3042 3045 3049 3052 3054 3057 3060 3063 3065 3067 3071 3074 3076 3081 3080 3076 3084 3087 3088 3091 3090 3089 3095 3097 3095 3097 3100 3100 3103 3104 3105 3106 3107
3061 3056 3051 3046 3042 3038 3034 3029 3027 3027 3029 3033 3037 3041 3043 3045 3047 3050 3053 3055 3058 3062 3064 3069 3070 3067 3058 3072 3078 3081 3081 3082 3084 3087 3088 3089 3088 3091 3093 3095 3096 3098 3099
3054 3048 3042 3037 3032 3030 3027 3022 3019 3019 3021 3024 3028 3031 3033 3036 3038 3040 3041 3043 3045 3048 3052 3056 3061 3062 3063 3067 3068 3071 3073 3072 3072 3076 3076 3079 3079 3080 3081 3084 3086 3088 3090
3050 3043 3036 3031 3029 3026 3023 3019 3018 3018 3018 3018 3021 3023 3024 3026 3029 3031 3031 3031 3033 3036 3040 3044 3049 3053 3056 3058 3059 3060 3061 3063 3063 3066 3066 3069 3069 3071 3071 3073 3077 3079 3082
Wind_Speed
6 9 8 7 8 7 6 6 5 5 3 2 2 2 2 3 4 3 1 1 2 4 3 2 1 3 5 7 7 7 8 8 7 7 7 7 6 4 5 5 4 4 3
10 7 10 9 9 9 9 7 6 5 3 2 2 1 2 3 4 3 3 3 2 4 3 1 1 3 5 7 6 6 6 8 10 9 8 7 7 6 6 5 5 5 4
11 10 10 10 10 12 11 10 9 7 5 4 3 2 2 3 4 4 5 4 2 3 4 1 1 2 5 5 6 7 8 8 8 9 9 8 7 6 6 6 8 6 3
6 10 13 12 11 13 13 12 12 9 8 6 4 5 5 4 5 5 6 5 2 2 3 1 0 2 4 4 6 7 8 8 7 7 7 7 9 8 7 4 3 3 2
7 7 13 15 13 15 15 15 14 13 11 10 8 8 7 6 6 7 7 6 4 1 3 2 1 2 3 4 5 6 6 6 6 5 7 9 8 8 6 4 3 2 1
12 9 7 16 17 16 18 18 17 15 15 13 12 10 9 8 7 9 8 9 7 4 3 4 2 3 3 5 6 6 7 7 6 7 7 7 7 6 5 4 3 2 2
18 14 10 11 16 19 18 19 19 19 18 16 14 12 11 10 9 11 12 12 11 8 4 4 4 3 3 5 6 7 8 7 7 7 6 8 8 7 6 5 4 4 3
16 17 14 13 16 18 22 21 22 20 19 19 16 14 13 12 12 12 14 14 13 11 7 5 4 4 4 5 6 7 8 8 9 10 9 8 8 7 7 6 5 5 5
16 18 19 18 18 18 20 23 22 22 22 21 18 18 17 15 14 14 16 16 16 15 12 8 6 4 5 5 6 7 8 8 8 9 9 8 8 8 8 7 7 7 6
16 17 19 23 23 22 22 22 25 25 24 22 21 19 19 18 16 16 17 18 18 17 16 12 9 7 6 6 7 7 8 8 9 10 10 10 10 10 10 10 10 9 9
17 19 20 21 23 27 26 25 25 27 27 26 24 23 23 22 20 20 20 20 19 20 19 17 13 11 9 8 8 8 9 10 9 10 11 11 12 12 12 11 12 11 11
19 20 22 24 25 25 30 29 28 27 29 29 28 28 26 25 24 23 23 23 22 22 22 22 18 15 13 12 11 10 10 10 10 10 11 11 11 11 11 12 12 12 11
21 22 23 24 26 28 28 31 33 31 30 31 30 29 29 28 27 26 25 25 25 24 24 24 22 18 16 16 15 14 14 12 11 11 11 11 10 11 10 10 10 10 11
22 23 24 25 27 29 31 32 33 37 37 35 31 31 32 31 30 29 28 27 26 26 25 26 26 23 22 20 19 18 18 15 13 13 12 12 12 11 10 10 10 10 10
25 25 26 26 28 31 33 34 36 37 37 39 37 35 34 34 34 34 33 32 29 26 26 26 27 27 27 25 24 23 22 20 18 17 15 14 13 12 11 10 10 11 11
26 27 28 29 30 31 33 35 37 39 40 40 40 39 37 37 36 36 37 37 35 30 29 28 26 28 29 29 29 27 26 25 24 22 20 17 17 15 13 12 11 11 12
30 29 29 31 34 35 34 35 38 40 42 43 44 42 42 41 39 38 37 39 39 36 34 34 32 31 31 31 31 30 29 28 28 26 25 22 20 19 16 15 14 13 14
34 34 34 35 35 37 39 39 40 42 43 45 46 47 46 45 43 42 40 40 37 37 37 38 37 36 33 32 32 32 32 31 31 31 29 27 25 22 20 20 18 18 17
35 37 37 37 38 38 40 42 43 44 46 48 48 49 50 50 49 48 43 42 39 39 38 37 37 36 33 33 32 33 34 35 35 35 32 32 29 27 24 24 23 23 21
37 38 39 39 38 39 41 42 45 46 46 47 51 52 52 53 53 52 51 47 44 42 40 41 39 38 36 34 35 36 35 34 34 39 38 34 33 31 29 28 27 26 24
38 39 39 41 41 41 42 44 46 47 46 46 48 51 54 53 54 56 55 54 49 47 44 42 41 43 40 37 38 39 36 36 37 39 37 36 35 33 32 30 30 29 27
35 35 36 38 39 41 44 45 46 49 50 47 47 49 50 53 53 54 57 56 54 51 48 45 44 46 44 41 41 39 38 41 37 35 37 33 34 32 32 33 33 31 30
35 34 35 36 38 39 40 42 45 50 50 48 45 46 46 46 49 49 53 57 57 55 54 51 53 49 47 42 44 43 43 44 38 34 37 36 36 35 36 34 34 32 31
32 33 35 37 37 39 40 42 38 38 47 44 40 41 43 43 44 44 47 52 57 58 57 56 53 53 45 45 45 46 47 46 45 38 36 36 39 38 31 27 29 31 32
33 30 30 33 35 34 31 28 19 21 30 34 34 36 39 40 39 40 42 46 52 56 59 58 55 50 47 47 50 49 48 46 46 42 39 40 34 41 34 29 31 32 35
35 30 28 23 20 19 20 16 12 17 20 25 27 31 35 38 36 36 38 41 44 51 56 59 54 50 47 48 50 52 49 49 50 49 41 42 38 40 38 33 31 32 38
Wind_Direction
188 213 221 218 219 217 211 202 197 191 192 204 228 246 268 277 280 286 221 203 297 314 323 316 197 162 148 141 140 138 164 163 167 164 162 155 159 141 141 156 157 137 117
221 223 224 223 220 217 214 209 206 208 220 221 230 242 258 262 258 248 220 211 267 316 318 286 176 152 156 160 176 164 183 170 168 165 162 164 164 156 148 161 156 137 118
221 220 225 230 231 224 220 211 211 215 220 227 253 261 291 269 247 224 208 216 250 336 348 19 134 175 199 193 189 183 184 182 177 175 170 169 165 162 149 139 119 120 120
239 226 226 227 236 227 224 217 212 223 230 241 251 256 278 285 259 226 209 211 209 341 350 359 311 205 223 207 201 203 201 186 183 192 181 177 162 168 159 152 116 120 116
275 259 232 229 229 231 227 223 224 221 225 233 241 253 265 275 259 234 214 213 217 306 331 333 285 245 228 217 210 203 202 185 179 191 170 172 165 164 174 176 161 144 103
269 280 267 230 230 231 230 227 228 231 233 231 236 243 252 262 250 232 222 220 224 243 308 317 303 264 238 217 207 200 200 189 183 200 188 188 188 185 185 193 205 225 256
260 263 249 230 229 234 234 232 230 237 243 242 240 241 250 256 250 234 227 228 233 241 262 297 304 288 256 230 215 205 202 193 188 210 203 203 197 197 201 210 225 243 264
257 253 245 238 234 236 238 235 234 234 241 247 248 250 254 259 254 240 233 227 232 243 249 274 289 285 277 258 233 222 218 202 200 209 209 217 218 220 224 232 245 259 273
251 252 247 238 238 236 240 240 237 237 238 244 248 255 262 264 260 253 244 230 231 237 240 246 256 268 263 254 247 242 233 227 227 229 222 229 236 239 245 252 260 268 276
254 254 252 246 241 242 241 243 243 240 241 244 247 252 260 265 263 257 254 247 236 236 237 238 243 240 248 249 250 249 246 244 236 240 247 246 249 252 256 261 267 273 276
262 259 258 255 249 243 241 242 243 247 246 245 249 252 255 263 264 262 255 251 247 242 240 240 241 242 242 244 245 249 250 246 244 240 251 253 256 260 264 268 271 275 278
259 261 260 260 260 254 244 239 241 243 248 249 251 253 254 257 261 259 260 255 249 244 244 246 241 244 246 245 244 245 247 247 248 243 247 253 260 265 269 272 275 278 281
259 255 256 256 258 260 257 247 241 241 243 246 249 251 253 253 254 258 258 258 256 254 253 251 249 247 248 247 247 246 248 246 245 242 245 252 257 261 265 271 278 281 282
260 257 255 254 255 258 259 258 255 247 244 245 249 251 253 253 253 255 256 255 255 257 255 252 250 248 246 245 247 251 253 253 250 247 249 252 256 258 262 269 276 280 285
269 268 263 257 254 253 256 257 258 258 254 249 245 249 251 251 254 255 255 251 250 254 258 257 252 248 247 247 249 253 252 251 248 247 247 252 259 266 270 276 283 289 289
274 272 272 272 270 260 255 255 256 258 260 257 252 247 249 253 254 255 254 251 249 251 254 255 252 250 249 249 251 253 252 252 252 251 249 244 249 256 261 270 273 277 279
278 274 270 268 266 265 262 259 257 256 256 257 257 253 248 249 251 254 256 253 251 254 254 253 253 250 249 252 254 253 252 252 253 252 253 251 249 251 253 257 261 265 268
280 279 276 273 269 268 266 261 256 255 255 254 256 256 254 250 249 251 252 255 254 254 253 253 254 253 253 255 255 257 257 255 251 252 251 253 252 250 251 252 258 261 263
288 285 281 278 274 269 267 265 262 254 251 252 251 252 253 252 250 249 251 253 252 252 254 252 254 255 257 258 257 256 260 262 260 255 249 249 250 249 247 250 254 257 259
291 288 285 281 278 275 272 269 266 263 257 251 251 250 249 249 249 247 248 249 250 250 252 252 255 255 256 255 256 253 251 257 259 254 254 250 250 251 249 250 252 255 261
293 291 290 287 284 280 275 271 267 264 260 256 251 250 248 247 246 247 246 247 247 248 251 252 256 255 252 253 256 255 257 254 253 254 256 253 250 254 253 251 254 252 254
296 293 290 286 285 284 283 277 271 265 259 255 251 248 247 247 246 245 246 245 246 247 247 251 251 252 251 251 257 254 267 260 256 259 260 252 251 249 258 250 253 256 254
296 294 293 290 289 288 288 282 274 263 259 255 252 250 249 248 248 246 244 245 243 244 246 244 246 242 247 252 256 258 257 259 264 263 258 258 248 251 249 253 255 253 255
307 296 293 293 292 292 293 293 280 263 255 254 251 250 248 247 247 247 244 243 244 243 244 244 249 254 253 251 253 255 258 252 258 261 259 257 245 242 244 251 254 258 258
331 320 309 301 298 293 295 297 288 272 260 258 255 249 250 251 248 247 247 244 243 243 242 244 243 249 254 253 252 255 250 258 260 260 258 258 256 245 236 253 253 260 262
338 333 326 310 301 291 293 297 298 288 271 262 259 252 249 250 251 250 248 248 246 246 243 243 243 243 248 251 254 254 252 252 253 255 253 254 261 245 256 257 256 258 261